Weather History for PAWD - May, 2009

Change the Weather History Date:

Sunday, May 10, 2009

  Actual Average Record
Temperature  
Mean Temperature 50 °F -  
Max Temperature 62 °F 50 °F 70 °F (2014)
Min Temperature 39 °F 38 °F 20 °F (1964)
Degree Days  
Heating Degree Days 15    
Moisture  
Dew Point 32 °F    
Average Humidity 52    
Maximum Humidity 82    
Minimum Humidity 26    
Precipitation  
Precipitation 0.00 in - - ()
Sea Level Pressure  
Sea Level Pressure 30.21 in    
Wind  
Wind Speed 6 mph (NNW)    
Max Wind Speed 20 mph    
Max Gust Speed 29 mph    
Visibility 10 miles    
Events      
Averages and records for this station are not official NWS values.
T = Trace of Precipitation, MM = Missing Value Source: NWS Daily Summary

Daily Weather History Graph

Daily Weather History Graph

Search for Another Location

Airport or City:

Trip Planner

Search our weather history database for the weather conditions in past years. The results will help you decide how hot, cold, wet, or windy it might be!

Date:

Astronomy

May. 10, 2009 Rise Set
Actual Time 5:30 AM AKDT 10:19 PM AKDT
Civil Twilight 4:30 AM AKDT 11:20 PM AKDT
Nautical Twilight 2:18 AM AKDT 1:21 AM AKDT
Astronomical Twilight Sun does not set Sun does not set
Moon 12:26 AM AKDT (5/10) 5:11 AM AKDT (5/10)
Length of Visible Light 18h 50m
Length of Day
16h 49m
Full, 97% of the Moon is Illuminated
May 10
Full
May 16
Last Quarter
May 24
New
May 30
First Quarter
Jun 7
Full

Hourly Weather History & Observations

Time (AKDT) Temp. Windchill Dew Point Humidity Pressure Visibility Wind Dir Wind Speed Gust Speed Precip Events Conditions
12:53 AM 44.1 °F - 37.9 °F 79% 30.33 in 10.0 mi Calm Calm - N/A   Overcast
1:53 AM 42.1 °F - 37.0 °F 82% 30.33 in 10.0 mi Calm Calm - N/A   Overcast
2:53 AM 42.1 °F - 37.0 °F 82% 30.32 in 10.0 mi Calm Calm - N/A   Overcast
3:53 AM 42.1 °F - 37.0 °F 82% 30.32 in 10.0 mi Calm Calm - N/A   Overcast
5:53 AM 41.0 °F 37.1 °F 35.1 °F 79% 30.29 in 10.0 mi North 5.8 mph - N/A   Overcast
6:42 AM 39.2 °F 35.0 °F 33.8 °F 81% 30.28 in 10.0 mi North 5.8 mph - N/A   Scattered Clouds
6:53 AM 39.0 °F 34.0 °F 34.0 °F 82% 30.28 in 10.0 mi North 6.9 mph - N/A   Clear
7:53 AM 42.1 °F 36.1 °F 34.0 °F 73% 30.26 in 10.0 mi North 10.4 mph - N/A   Clear
8:53 AM 46.0 °F 41.4 °F 36.0 °F 68% 30.25 in 10.0 mi North 9.2 mph - N/A   Clear
9:53 AM 50.0 °F - 36.0 °F 59% 30.23 in 10.0 mi NE 10.4 mph - N/A   Clear
10:53 AM 53.1 °F - 34.0 °F 48% 30.22 in 10.0 mi ENE 10.4 mph - N/A   Clear
11:53 AM 57.9 °F - 30.9 °F 36% 30.21 in 10.0 mi NNW 10.4 mph 20.7 mph N/A   Clear
12:53 PM 57.0 °F - 30.9 °F 37% 30.20 in 10.0 mi WNW 9.2 mph 20.7 mph N/A   Clear
1:53 PM 59.0 °F - 30.0 °F 33% 30.19 in 10.0 mi NW 10.4 mph - N/A   Clear
2:53 PM 61.0 °F - 30.0 °F 31% 30.17 in 10.0 mi NNW 13.8 mph 21.9 mph N/A   Clear
3:53 PM 61.0 °F - 28.0 °F 29% 30.15 in 10.0 mi NNW 11.5 mph 28.8 mph N/A   Clear
4:53 PM 61.0 °F - 27.0 °F 27% 30.14 in 10.0 mi NW 16.1 mph 21.9 mph N/A   Clear
5:53 PM 60.1 °F - 25.0 °F 26% 30.13 in 10.0 mi NNW 16.1 mph 24.2 mph N/A   Clear
6:53 PM 59.0 °F - 27.0 °F 29% 30.12 in 10.0 mi NNW 16.1 mph 24.2 mph N/A   Clear
7:53 PM 57.0 °F - 27.0 °F 32% 30.12 in 10.0 mi NW 19.6 mph 27.6 mph N/A   Partly Cloudy
8:53 PM 55.9 °F - 28.9 °F 36% 30.11 in 10.0 mi NW 11.5 mph 25.3 mph N/A   Clear
9:53 PM 55.0 °F - 30.9 °F 40% 30.11 in 10.0 mi North 11.5 mph 16.1 mph N/A   Clear
10:53 PM 53.1 °F - 30.0 °F 41% 30.11 in 10.0 mi North 6.9 mph - N/A   Clear
11:53 PM 54.0 °F - 28.9 °F 38% 30.12 in 10.0 mi North 8.1 mph 21.9 mph N/A   Clear